NAKANO
         **** Don't distribute anyone except personal use only ****
                (C) Copyright 2009 OAA/ComputingSection
write mail from CFAD0::NAKANO on 2009-07-29 07:36:14(JST).
 
    C/2008 T2 (Cardinal)
Epoch 2009 June 18.0 TT = JDT 2455000.5  
T 2009 June 13.23805 TT                                 Nakano
q   1.2022445            (2000.0)            P               Q
z  -0.0000755      Peri.  215.86832     -0.76757912     +0.02808272
 +/-0.0000016      Node   309.67813     +0.57571993     -0.40890974
e   1.0000908      Incl.   56.30414     -0.28172480     -0.91214263
From 1277 observations 2008 Oct. 6-2009 June 3, mean residual 0".56.
   (1/a)org.= +0.000004, (1/a)fut.= +0.000268 (+/-0.000002), Q= 7.

NAKANO
         **** Don't distribute anyone except personal use only ****
                (C) Copyright 2009 OAA/ComputingSection
write mail from CFAD0::NAKANO on 2009-06-20 01:00:31(JST).

    C/2008 T2 (Cardinal)
Epoch 2009 June 18.0 TT = JDT 2455000.5  
T 2009 June 13.23988 TT                                 Nakano
q   1.2022462            (2000.0)            P               Q
z  -0.0000565      Peri.  215.86879     -0.76758045     +0.02808943
 +/-0.0000031      Node   309.67825     +0.57571436     -0.40891560
e   1.0000679      Incl.   56.30402     -0.28173256     -0.91213980
From 815 observations 2008 Oct. 6-2009 Mar. 17, mean residual 0".54.
   (1/a)org.= +0.000023, (1/a)fut.= +0.000287 (+/-0.000003), Q= 6.

         **** Don't distribute anyone except personal use only ****
                (C) Copyright 2009 OAA/ComputingSection
write mail from CFAD0::NAKANO on 2009-03-19 05:48:55(JST).
 
    C/2008 T2 (Cardinal)
Epoch 2009 June 18.0 TT = JDT 2455000.5  
T 2009 June 13.22597 TT                                 Nakano
q   1.2022176            (2000.0)            P               Q
z  -0.0001075      Peri.  215.86847     -0.76755703     +0.02805588
 +/-0.0000415      Node   309.67555     +0.57575424     -0.40890741
e   1.0001293      Incl.   56.30463     -0.28171486     -0.91214451
From 236 observations 2008 Oct. 6-Dec. 7, mean residual 0".57.
   (1/a)org.= -0.000029, (1/a)fut.= +0.000235 (+/-0.000042), Q= 5.


NAKANO
         **** Don't distribute anyone except personal use only ****
                (C) Copyright 2008 OAA/ComputingSection
write mail from CFAD0::NAKANO on 2008-12-18 03:31:25(JST).


    C/2008 T2 (Cardinal)

T 2009 June 13.31486 TT                                 Nakano

q   1.2023892            (2000.0)            P               Q

                   Peri.  215.86633     -0.76775138     +0.02829078

                   Node   309.69871     +0.57545701     -0.40891393

e   1.0            Incl.   56.30079     -0.28179257     -0.91213433

From 160 observations 2008 Oct. 6-Nov. 4.



NAKANO

         **** Don't distribute anyone except personal use only ****

                (C) Copyright 2008 OAA/ComputingSection

write mail from CFAD0::NAKANO on 2008-11-05 05:02:23(JST).

 

◎C/2008 T2の軌道と予報位置



 守山の井狩康一氏と芸西の関勉氏から10月8日,伊賀の田中利彦氏と井狩氏,

上尾の門田健一氏から9日の観測が報告されました.井狩氏の10月8日の観測は

発見公表前の確認観測を含みます.氏は,この天体には,0'.3のコマと西に0'.4

の尾が見られることを報告しています.彗星のCCD全光度は,田中氏が14.9等,

門田氏が16.0等でした.彗星は,来年夏頃に8等級まで明るくなるでしょう.



    C/2008 T2 (Cardinal)

T 2009 June 13.50326 TT                                 Nakano

q   1.2038963            (2000.0)            P               Q

                   Peri.  215.76462     -0.76891901     +0.02834537

                   Node   309.82812     +0.57439191     -0.40810918

e   1.0            Incl.   56.27343     -0.28078014     -0.91249298

From 32 observations 2008 Oct. 1-9.

 

Date/        TT  R.A.(2000) Decl.     Delta   r     Daily motion  Mag.  Moon Age

              h    h  m       。  ,                      ,  / PA 。  m1      。

2008 Oct.  1 12  07 06.35  +80 06.5   3.428  3.602    11.3 /  47  14.7  109  .05

           2 12  07 09.61  +80 14.2   3.410  3.591    11.3 /  47  14.7  115  .10

           3 12  07 12.88  +80 21.9   3.392  3.581    11.2 /  46  14.7  120  .16

           4 12  07 16.15  +80 29.6   3.374  3.570    11.2 /  46  14.7  124  .24

           5 12  07 19.43  +80 37.3   3.356  3.560    11.1 /  45  14.6  125  .33

           6 12  07 22.71  +80 45.0   3.338  3.549    11.0 /  45  14.6  126  .42

           7 12  07 25.99  +80 52.7   3.320  3.539    11.0 /  45  14.6  124  .51

           8 12  07 29.28  +81 00.5   3.302  3.528    10.9 /  44  14.6  121  .61

           9 12  07 32.57  +81 08.3   3.285  3.518    10.9 /  44  14.5  117  .70

          10 12  07 35.86  +81 16.1   3.267  3.507    10.8 /  43  14.5  111  .79

          11 12  07 39.16  +81 23.9   3.249  3.497    10.7 /  43  14.5  104  .87

          12 12  07 42.45  +81 31.7   3.231  3.486    10.7 /  42  14.5   97  .93

          13 12  07 45.75  +81 39.6   3.214  3.476    10.6 /  42  14.4   89  .98

          14 12  07 49.05  +81 47.5   3.196  3.465    10.6 /  41  14.4   81 1.00

          15 12  07 52.34  +81 55.4   3.179  3.455    10.5 /  40  14.4   74  .99

          16 12  07 55.63  +82 03.4   3.161  3.444    10.5 /  40  14.4   67  .96

          17 12  07 58.93  +82 11.4   3.144  3.434    10.4 /  39  14.3   61  .90

          18 12  08 02.21  +82 19.4   3.126  3.423    10.4 /  38  14.3   58  .82

          19 12  08 05.50  +82 27.5   3.109  3.412    10.3 /  38  14.3   57  .72

          20 12  08 08.77  +82 35.7   3.092  3.402    10.3 /  37  14.3   58  .61

          21 12  08 12.04  +82 43.9   3.074  3.391    10.3 /  36  14.2   61  .50

          22 12  08 15.31  +82 52.1   3.057  3.381    10.2 /  35  14.2   66  .39

          23 12  08 18.56  +83 00.4   3.040  3.370    10.2 /  35  14.2   71  .29

          24 12  08 21.80  +83 08.7   3.023  3.359    10.2 /  34  14.2   78  .20

          25 12  08 25.03  +83 17.1   3.006  3.349    10.1 /  33  14.1   85  .12

          26 12  08 28.24  +83 25.6   2.989  3.338    10.1 /  32  14.1   92  .06

          27 12  08 31.44  +83 34.1   2.972  3.327    10.1 /  31  14.1   98  .02

          28 12  08 34.61  +83 42.7   2.955  3.317    10.1 /  30  14.1  105  .00

          29 12  08 37.77  +83 51.4   2.938  3.306    10.0 /  29  14.0  110  .00

          30 12  08 40.90  +84 00.1   2.922  3.295    10.0 /  28  14.0  115  .02

          31 12  08 44.01  +84 08.9   2.905  3.285    10.0 /  27  14.0  118  .06

     Nov.  1 12  08 47.09  +84 17.8   2.888  3.274    10.0 /  26  14.0  120  .11

NAKANO

         **** Don't distribute anyone except personal use only ****

                (C) Copyright 2008 OAA/ComputingSection

write mail from CFAD0::NAKANO on 2008-10-11 06:35:23(JST).

